星链-30468 (STARLINK-30468 )

导读

STARLINK-30468是美国太空探索技术公司SpaceX星链卫星互联网项目中的一颗低轨通信卫星,于2023年9月24日发射升空,隶属于美国 SpaceX 公司的星链星座组网。星链项目依托近地轨道大规模卫星星座,为全球多国提供高速低延迟宽带互联网接入服务,这款卫星也承担着补充星座容量、扩展全球网络覆盖的任务,助力星链持续完成组网建设,满足偏远地区、移动场景等特殊场景的互联网连接需求。

基本信息
目录编号:
57926
目录名称:
STARLINK-30468
国际标识:
2023-147P
轨道中心:
EARTH
卫星名称:
星链-30468
卫星全名:
星链-30468 (STARLINK-30468 )
卫星状态:
在轨 (已飞行1000 天)
发射日期:
2023-09-24 UTC
国别 :
美国 (US)
星等 :
--
轨道信息
数据来源 国际轨道数据 AOE轨道数据
星历时间 2026-06-19T14:16:00+0800
1天前
查看轨道信息
2026-06-17T23:00:00+0800
2天前
查看轨道信息
半长轴 6861.179km 6861.225km
偏心率 0.000136 0.0001636
轨道倾角 43.000° 43.004°
近地点辐角 251.992° 248.300°
升交点赤经 114.857° 124.098°
平近点角 108.078° 103.792°
近地点 482.108km 481.965km
远地点 483.976km 484.211km
周期 94.267分钟 94.268分钟
每日圈数 15.275827 15.275671
详细信息
固有亮度:
5
最大亮度:
0.3
卫星平台:
Starlink v2.0 mini
覆盖范围:
全球
运营商:
太空探索技术公司
运营商所在国:
美国
制造商(研发单位):
太空探索技术公司
制造商所在国:
美国
使用方式:
暂无
卫星简介
星链(Starlink)计划是由太空探索技术公司(SpaceX)提出的一个巨型低轨卫星互联网星座项目,计划在2019年至2024年间在太空搭建由约1.2万颗卫星组成的“星链”网络,其中1584颗将部署在地球上空550千米处的近地轨道,并从2020年开始工作。该卫星仍在工作。
2D轨道图
3D轨道图
轨道高度分析图
轨道倾角分析图
轨道综合分析图
查看轨道综合分析图